TimeCDT,TemperatureF,Dew PointF,Humidity,Sea Level PressureIn,VisibilityMPH,Wind Direction,Wind SpeedMPH,Gust SpeedMPH,PrecipitationIn,Events,Conditions,WindDirDegrees,DateUTC
12:53 AM,51.1,34.0,52,30.09,10.0,SSW,8.1,-,N/A,,Clear,210,2011-10-31 05:53:00
1:53 AM,48.0,35.1,61,30.09,10.0,SW,9.2,-,N/A,,Clear,220,2011-10-31 06:53:00
2:53 AM,46.0,36.0,68,30.09,10.0,SW,8.1,-,N/A,,Clear,230,2011-10-31 07:53:00
3:53 AM,43.0,35.1,74,30.09,10.0,SW,5.8,-,N/A,,Clear,230,2011-10-31 08:53:00
4:53 AM,43.0,36.0,76,30.10,10.0,SW,5.8,-,N/A,,Clear,230,2011-10-31 09:53:00
5:53 AM,42.1,36.0,79,30.11,10.0,SW,5.8,-,N/A,,Clear,230,2011-10-31 10:53:00
6:53 AM,41.0,35.1,79,30.11,10.0,SW,5.8,-,N/A,,Clear,230,2011-10-31 11:53:00
7:53 AM,42.1,36.0,79,30.12,10.0,SW,6.9,-,N/A,,Clear,230,2011-10-31 12:53:00
8:53 AM,46.9,37.9,71,30.14,10.0,SW,5.8,-,N/A,,Clear,230,2011-10-31 13:53:00
9:53 AM,53.1,37.9,57,30.14,10.0,WSW,9.2,-,N/A,,Clear,250,2011-10-31 14:53:00
10:53 AM,60.1,34.0,38,30.14,10.0,West,16.1,23.0,N/A,,Clear,260,2011-10-31 15:53:00
11:53 AM,61.0,32.0,34,30.15,10.0,West,10.4,-,N/A,,Clear,280,2011-10-31 16:53:00
12:53 PM,63.0,30.9,30,30.13,10.0,West,11.5,18.4,N/A,,Clear,270,2011-10-31 17:53:00
1:53 PM,64.9,28.9,26,30.12,10.0,West,16.1,23.0,N/A,,Clear,280,2011-10-31 18:53:00
2:53 PM,64.9,28.9,26,30.11,10.0,NW,16.1,25.3,N/A,,Clear,310,2011-10-31 19:53:00
3:53 PM,66.0,28.9,25,30.11,10.0,WNW,8.1,-,N/A,,Clear,290,2011-10-31 20:53:00
4:53 PM,64.0,28.9,27,30.12,10.0,West,6.9,-,N/A,,Clear,270,2011-10-31 21:53:00
5:53 PM,61.0,28.0,29,30.12,10.0,Calm,Calm,-,N/A,,Clear,0,2011-10-31 22:53:00
6:53 PM,46.4,35.6,66,30.13,10.0,Calm,Calm,-,N/A,,Clear,0,2011-10-31 23:53:00
7:53 PM,43.0,34.0,71,30.15,10.0,South,4.6,-,N/A,,Clear,190,2011-11-01 00:53:00
8:53 PM,44.6,33.8,66,30.16,10.0,Calm,Calm,-,N/A,,Clear,0,2011-11-01 01:53:00
9:53 PM,42.1,33.1,70,30.17,10.0,Calm,Calm,-,N/A,,Clear,0,2011-11-01 02:53:00
10:53 PM,41.0,33.1,73,30.18,10.0,Calm,Calm,-,N/A,,Clear,0,2011-11-01 03:53:00
11:53 PM,41.0,34.0,76,30.18,10.0,Calm,Calm,-,N/A,,Clear,0,2011-11-01 04:53:00